Volver al catálogo

ONEWEB-0604

ActivoComunicacionesPO
NORAD 54668·PAYLOAD·🇬🇧 United Kingdom

Lanzado Dec 8, 2022 desde Cape Canaveral Space Force Station

Loading…

Próximos Pases (próximas 24 horas)

TLE

ActualizadoSource: CelesTrak SupGP

Época: Sep 14, 2026, 15:00 UTC

1 54668C 22166AC  26257.62518935 -.00000616  00000+0 -14929-2 0  2575
2 54668  87.9271 226.1747 0002095  81.3301 313.7708 13.21824966    18

Sigue ONEWEB-0604 en tiempo real con AllMySat

Download on the App Store